Location: Norton
(51.3000°N, 0.8167°E)
Time: 17:50:18
(UTC+00:00)

Cosmos 1461 - Pass Details

Date: 03 March 2021
Orbit: 504 x 660 km, 65.0° (Epoch: 12 April)

Event Time Altitude Azimuth Distance (km) Brightness Sun altitude
Rises 19:08:06 0° 237° (WSW) 2,977 7.4 -14.4°
Reaches altitude 10° 19:10:28 10° 243° (WSW) 2,074 6.6 -14.7°
Maximum altitude 19:15:04 49° 319° (NW) 850 4.1 -15.4°
Drops below altitude 10° 19:19:40 10° 35° (NE) 2,070 5.5 -16.1°
Enters shadow 19:20:38 - 38° (NE) 2,432 5.8 -16.3°
